{"data":{"norad_id":52894,"epoch":"2026-09-20T08:22:42.808512Z","epoch_age_seconds":147224,"freshness":"FRESH","line1":"1 52894U 22065A   26263.34910658  .00000147  00000+0  40818-4 0  9994","line2":"2 52894  98.2429  42.0291 0010581  83.1479 277.0925 14.59588522226235","mean_motion":14.59588522,"eccentricity":0.0010581,"inclination_deg":98.2429,"raan_deg":42.0291,"arg_perigee_deg":83.1479,"mean_anomaly_deg":277.0925,"bstar":4.0818e-5,"rev_number":22623,"period_min":98.657942173102,"perigee_km":687.01936551216,"apogee_km":701.98648612317,"semimajor_km":7072.6399258177,"source":"CELESTRAK","updated_at":"2026-09-21T09:00:08.759466Z"}}